Location: Kolin
(50.0330°N, 15.2000°E)
Time: 11:20:07
(UTC+02:00)

ISS - Pass Details

Date: 22 May 2021
Orbit: 417 x 422 km, 51.6° (Epoch: 13 June)

Event Time Altitude Azimuth Distance (km) Brightness Sun altitude
Rises 22:57:31 0° 283° (WNW) 2,367 0.7 -14.7°
Reaches altitude 10° 22:59:38 10° 285° (WNW) 1,503 -0.3 -14.9°
Maximum altitude 23:03:00 75° 11° (NNE) 439 -3.6 -15.1°
Enters shadow 23:05:24 18° 96° (E) 1,112 -1.9 -15.3°
